Regional Weather Roundup
Issued by NWS Columbia, SC

Home | Current Version | Previous Version | Text Only | Print | Product List | Glossary On
Versions: 1 2 3 4 5 6 7 8 9 10 11 12 13 14 15 16 17 18 19 20 21 22 23 24 25 26 27 28 29 30 31 32 33 34 35 36 37 38 39 40 41 42 43 44 45 46 47 48 49 50
000
ASUS42 KCAE 031910
RWRCAE
REGIONAL WEATHER ROUNDUP
NATIONAL WEATHER SERVICE COLUMBIA SC
300 PM EDT MON AUG 03 2015

NOTE: "FAIR" INDICATES FEW OR NO CLOUDS BELOW 12,000 FEET WITH NO
SIGNIFICANT WEATHER AND/OR OBSTRUCTIONS TO VISIBILITY.

NOT ALL STATIONS ARE QUALITY CONTROLLED BY THE NATIONAL
WEATHER SERVICE. USE DATA WITH CAUTION...ESPECIALLY
DEWPOINT OBSERVATIONS.

SCZ001>056-GAZ040-063>065-077-032000-
...UPSTATE SOUTH CAROLINA...

CITY           SKY/WX    TMP DP  RH WIND       PRES   REMARKS
ANDERSON       MOSUNNY   93  64  38 W6        29.92F
LIBERTY        CLEAR     92  64  38 NE6       29.93F
SPARTANBURG      N/A     93  63  36 CALM      29.93S
CLEMSON        SUNNY     93  58  30 VRB3      29.94F
GREENVILLE     PTSUNNY   94  62  34 NW8       29.94F
GREENWOOD      PTSUNNY   92  65  40 VRB3      29.92F
GREER          PTSUNNY   91  62  37 NE6       29.92F
ROCK HILL      SUNNY     89  64  43 CALM      29.93F
CHESTER        CLEAR     93  55  27 CALM      29.93F
LAURENS        PTCLDY    93  72  49 E7G22     29.91F HX 100


...CENTRAL SOUTH CAROLINA...

CITY           SKY/WX    TMP DP  RH WIND       PRES   REMARKS
COLUMBIA APT   PTSUNNY   93  70  46 SE14      29.89F HX  99
COLUMBIA OWENS MOSUNNY   87  69  54 SE6       29.92S
DARLINGTON     MOSUNNY   91  72  52 SE9G18    29.92S HX  98
FLORENCE       MOSUNNY   88  70  55 SW14      29.93F
MCENTIRE ANGB  RAIN      79  73  83 SW8       29.93S VSB 1
ORANGEBURG     PTSUNNY   83  72  69 S10       29.94S
SUMTER SHAW    PTSUNNY   87  71  57 SE9       29.91F
NEWBERRY       CLEAR     91  64  40 E7        29.93F
AIKEN          FAIR      90  63  40 N3        29.94F
BARNWELL       FAIR      86  75  70 SE13      29.92S HX  95
MANNING        TSTM      72  72 100 SE6       29.96R
CAMDEN         FAIR      90  70  51 S7G20     29.91S HX  95
LANCASTER      PTCLDY    90  66  45 SE3       29.92S
WINNSBORO      CLEAR     93  63  36 E3        29.91F


...EASTERN AND COASTAL SOUTH CAROLINA...

CITY           SKY/WX    TMP DP  RH WIND       PRES   REMARKS
MYRTLE BEACH   PTSUNNY   81  73  78 W7        29.97R
N MYRTLE BCH   CLOUDY    77  73  87 N3        29.96S
CONWAY         MOCLDY    79  73  83 NE5       29.96S
MARION         FAIR      86  70  58 S10G16    29.94S
HARTSVILLE     MOCLDY    91  68  46 S9        29.91S HX  95
FLORENCE       MOSUNNY   88  70  55 SW14      29.93F
DARLINGTON     MOSUNNY   91  72  52 SE9G18    29.92S HX  98
CHARLESTON APT CLOUDY    84  70  62 SW14      29.93S
MOUNT PLEASANT FAIR      84  75  74 S12       29.93S
WALTERBORO     CLOUDY    79  77  94 NW3       29.94R
BEAUFORT       CLOUDY    81  76  84 SE3       29.91S THUNDER


...EASTERN GEORGIA...

CITY           SKY/WX    TMP DP  RH WIND       PRES   REMARKS
AUGUSTA BUSH F PTSUNNY   92  73  53 E8        29.88F HX 100
AUGUSTA DANIEL MOSUNNY   91  70  49 CALM      29.90F HX  96
THOMSON        MOSUNNY   92  74  55 E5        29.94F HX 101
WASHINGTON     FAIR      97  73  46 SE3       29.91F HX 107
SYLVANIA       CLOUDY    84  79  84 E12       29.92R THUNDER HX  96
STATESBORO     PTSUNNY   83  79  86 E7        29.90S THUNDER HX  95
SAVANNAH       CLOUDY    82  75  79 SE8       29.90S


...SOUTHERN NORTH CAROLINA...

CITY           SKY/WX    TMP DP  RH WIND       PRES   REMARKS
CHARLOTTE      MOSUNNY   93  62  35 VRB6      29.92F
MONROE         MOSUNNY   90  63  40 CALM      29.92F
WADESBORO      PTCLDY    94  58  30 SE7       29.90F
ROCKINGHAM     PTCLDY    92  65  40 W5        29.91S
RUTHERFORDTON  PTSUNNY   88  61  39 CALM      29.94F
ASHEVILLE      SUNNY     87  56  34 SW9       30.01F

$$



USA.gov is the U.S. government's official web portal to all federal, state and local government web resources and services.